Location: Długosiodło
(52.7596°N, 21.5938°E)
Time: 13:12:43
(UTC+01:00)

ISS - Visible Passes

Search period start: 21 November 2017 00:00
Search period end: 01 December 2017 00:00
Orbit: 402 x 407 km, 51.6° (Epoch: 21 November)

Date Brightness Start Highest point End Pass type
(mag) Time Alt. Az. Time Alt. Az. Time Alt. Az.
28 Nov -0.8 18:17:42 10° SSW 18:17:53 11° SSW 18:17:53 11° SSW visible
29 Nov -1.7 17:26:06 10° S 17:27:47 16° SSE 17:27:47 16° SSE visible
30 Nov -1.3 16:35:24 10° SSE 16:36:08 11° SE 16:36:52 10° SE visible
30 Nov -1.6 18:08:51 10° SW 18:10:17 22° SSW 18:10:17 22° SSW visible
